Stations météo

réclame
Mon MeteoGroup
Pisa/S. Giusto, Italie (16158): Température de l'air & dewpoint: 15.10.2017 06:00:00 - 21.10.2017 06:00:00 (CEST)Pisa/S. Giusto, Italie (16158): Vitesse du vent: 15.10.2017 06:00:00 - 21.10.2017 06:00:00 (CEST)Pisa/S. Giusto, Italie (16158): Direction du vent: 15.10.2017 06:00:00 - 21.10.2017 06:00:00 (CEST)Pisa/S. Giusto, Italie (16158): reduced air pressure: 15.10.2017 06:00:00 - 21.10.2017 06:00:00 (CEST)Pisa/S. Giusto, Italie (16158): visibility: 15.10.2017 06:00:00 - 21.10.2017 06:00:00 (CEST)Pisa/S. Giusto, Italie (16158): Ensoleillement: 15.10.2017 06:00:00 - 21.10.2017 06:00:00 (CEST)
Date & Time tt [°C] td [°C] ff [km/h] ff [knt] dd ppp [hPa] vv [km] sd [min]
21.10.2017 06:00:00 12,0 11,0 4 2 E - 10 -
21.10.2017 05:00:00 12,4 10,6 4 2 E 1020,7 10 -
21.10.2017 04:00:00 13,0 11,0 4 2 ESE - 10 -
21.10.2017 03:00:00 13,0 11,0 8 4 ESE - 10 -
21.10.2017 02:00:00 13,4 12,5 8 4 ESE 1020,7 10 -
21.10.2017 01:00:00 14,0 13,0 5 3 - - 10 -
21.10.2017 00:00:00 12,0 12,0 5 3 E - 10 -
20.10.2017 23:00:00 14,0 12,5 2 1 - 1020,8 10 -
20.10.2017 22:00:00 14,0 13,0 8 4 E - 10 -
20.10.2017 21:00:00 15,0 14,0 5 3 ENE - 10 -
20.10.2017 20:00:00 17,4 14,7 2 1 - 1019,8 10 -
20.10.2017 19:00:00 17,0 14,0 5 3 NNW - 10 -
20.10.2017 18:00:00 19,0 13,0 8 4 WNW - 10 -
20.10.2017 17:00:00 20,6 12,1 9 5 W 1018,8 10 60
20.10.2017 16:00:00 21,0 12,0 13 7 WNW - 10 -
20.10.2017 15:00:00 21,0 11,0 5 3 WSW - 10 -
20.10.2017 14:00:00 20,6 12,3 4 2 SW 1019,5 10 60
20.10.2017 13:00:00 20,0 12,0 5 3 SE - 10 -
20.10.2017 12:00:00 19,0 11,0 5 3 E - 10 -
20.10.2017 11:00:00 14,2 8,8 5 3 ESE 1019,6 10 60
20.10.2017 10:00:00 13,0 8,0 4 2 N - 10 -
20.10.2017 09:00:00 11,0 9,0 11 6 ESE - 10 -
20.10.2017 08:00:00 7,6 7,2 13 7 SE 1018,1 10 0
20.10.2017 07:00:00 8,0 7,0 8 4 SE - 10 -
20.10.2017 06:00:00 8,0 8,0 11 6 SE - 10 -
20.10.2017 05:00:00 8,0 7,5 5 3 SE 1018,0 10 -
20.10.2017 04:00:00 8,0 8,0 9 5 ESE - 10 -
20.10.2017 03:00:00 8,0 8,0 5 3 SSE - 10 -
20.10.2017 02:00:00 10,4 10,0 8 4 SE 1018,3 10 -
20.10.2017 01:00:00 11,0 10,0 4 2 SSW - 10 -
20.10.2017 00:00:00 11,0 10,0 5 3 ESE - 10 -
19.10.2017 23:00:00 12,4 10,8 4 2 ESE 1017,9 10 -
19.10.2017 22:00:00 13,0 11,0 4 2 E - 10 -
19.10.2017 21:00:00 14,0 13,0 8 4 ENE - 10 -
19.10.2017 20:00:00 16,4 13,9 8 4 NE 1017,1 10 -
19.10.2017 19:00:00 17,0 14,0 4 2 N - 10 -
19.10.2017 18:00:00 18,0 15,0 8 4 W - 10 -
19.10.2017 17:00:00 22,0 10,8 11 6 W 1016,8 10 60
19.10.2017 16:00:00 21,0 10,0 8 4 ESE - 10 -
19.10.2017 15:00:00 21,0 10,0 8 4 ESE - 10 -
19.10.2017 14:00:00 20,0 9,6 11 6 ESE 1018,2 10 60
19.10.2017 13:00:00 20,0 10,0 15 8 ESE - 10 -
19.10.2017 12:00:00 18,0 11,0 16 9 ESE - 10 -
19.10.2017 11:00:00 15,4 12,0 15 8 ESE 1019,0 10 60
19.10.2017 10:00:00 14,0 12,0 15 8 E - 8 -
19.10.2017 09:00:00 12,0 11,0 15 8 ESE - 8 -
19.10.2017 08:00:00 9,6 9,0 5 3 SSE 1017,9 7 0
19.10.2017 07:00:00 9,0 9,0 2 1 SSE - 8 -
19.10.2017 06:00:00 9,0 8,0 11 6 SE - 10 -
19.10.2017 05:00:00 9,8 9,2 5 3 SE 1017,8 10 -
19.10.2017 04:00:00 10,0 10,0 9 5 E - 10 -
19.10.2017 03:00:00 11,0 10,0 9 5 ESE - 10 -
19.10.2017 02:00:00 11,0 10,7 8 4 ESE 1018,8 8 -
19.10.2017 01:00:00 10,0 10,0 9 5 ESE - 7 -
19.10.2017 00:00:00 11,0 11,0 4 2 ESE - 4,0 -
18.10.2017 23:00:00 11,8 11,5 2 1 ENE 1018,9 3,0 -
18.10.2017 22:00:00 12,0 12,0 4 2 S - 5 -
18.10.2017 21:00:00 14,0 13,0 5 3 E - 10 -
18.10.2017 20:00:00 16,4 14,9 5 3 NE 1018,7 10 -
18.10.2017 19:00:00 17,0 15,0 5 3 NW - 10 -
18.10.2017 18:00:00 18,0 15,0 9 5 W - 10 -
18.10.2017 17:00:00 19,2 14,5 13 7 SW 1018,7 10 60
18.10.2017 16:00:00 20,0 14,0 8 4 SW - 10 -
18.10.2017 15:00:00 20,0 14,0 5 3 SW - 10 -
18.10.2017 14:00:00 19,4 10,4 5 3 SSW 1019,9 10 48
18.10.2017 13:00:00 19,0 10,0 4 2 NE - 10 -
18.10.2017 12:00:00 18,0 11,0 11 6 ESE - 10 -
18.10.2017 11:00:00 13,6 10,2 13 7 ESE 1021,3 10 60
18.10.2017 10:00:00 12,0 10,0 13 7 ESE - 10 -
18.10.2017 09:00:00 9,0 9,0 9 5 E - 10 -
18.10.2017 08:00:00 7,2 6,8 8 4 ESE 1021,6 10 -
18.10.2017 07:00:00 8,0 7,0 5 3 ESE - 8 -
18.10.2017 06:00:00 8,0 8,0 5 3 ESE - 8 -
18.10.2017 05:00:00 8,4 8,1 9 5 SE 1021,8 7 -
18.10.2017 04:00:00 9,0 8,0 8 4 ESE - 3,0 -
18.10.2017 03:00:00 9,0 8,0 5 3 E - 3,0 -
18.10.2017 02:00:00 9,0 8,7 5 3 ESE 1022,8 3,0 -
18.10.2017 01:00:00 9,0 9,0 5 3 SSE - 3,0 -
18.10.2017 00:00:00 10,0 10,0 5 3 ESE - 3,0 -
17.10.2017 23:00:00 11,0 10,7 5 3 SSE 1023,1 1,2 -
17.10.2017 22:00:00 12,0 11,0 2 1 - - 4,0 -
17.10.2017 21:00:00 15,0 14,0 2 1 - - 8 -
17.10.2017 20:00:00 16,0 13,5 4 2 WSW 1023,0 10 0
17.10.2017 19:00:00 16,0 13,0 5 3 NNW - 10 -
17.10.2017 18:00:00 18,0 13,0 9 5 W - 10 -
17.10.2017 17:00:00 20,2 11,7 13 7 W 1023,3 10 48
17.10.2017 16:00:00 22,0 10,0 2 1 S - 10 -
17.10.2017 15:00:00 22,0 11,0 5 3 SE - 10 -
17.10.2017 14:00:00 19,6 10,9 5 3 SE 1024,7 10 60
17.10.2017 13:00:00 19,0 10,0 4 2 - - 10 -
17.10.2017 12:00:00 18,0 9,0 4 2 N - 10 -
17.10.2017 11:00:00 13,0 12,4 2 1 - 1026,3 10 60
17.10.2017 10:00:00 12,0 12,0 11 6 ESE - 10 -
17.10.2017 09:00:00 10,0 10,0 9 5 ESE - 10 -
17.10.2017 08:00:00 7,6 7,5 5 3 SE 1025,7 10 0
17.10.2017 07:00:00 7,0 7,0 2 1 SE - 0,7 -
17.10.2017 06:00:00 7,0 7,0 2 1 E - 0,5 -
17.10.2017 05:00:00 8,4 8,2 5 3 SE 1026,4 0,7 -
17.10.2017 04:00:00 9,0 9,0 8 4 ESE - 0,6 -
17.10.2017 03:00:00 9,0 8,0 5 3 ESE - 0,7 -
17.10.2017 02:00:00 9,8 9,8 4 2 SSE 1027,2 4,0 -
17.10.2017 01:00:00 10,0 10,0 8 4 ESE - 0,7 -
17.10.2017 00:00:00 11,0 11,0 8 4 E - 0,6 -
16.10.2017 23:00:00 11,0 11,0 5 3 ESE 1027,4 0,7 -
16.10.2017 22:00:00 11,0 11,0 4 2 SSE - 0,2 -
16.10.2017 21:00:00 12,0 12,0 2 1 SW - 4,0 -
16.10.2017 20:00:00 16,4 15,3 4 2 W 1027,2 10 -
16.10.2017 19:00:00 17,0 15,0 5 3 W - 10 -
16.10.2017 18:00:00 18,0 16,0 9 5 WNW - 10 -
16.10.2017 17:00:00 20,0 15,2 13 7 WNW 1027,4 10 60
16.10.2017 16:00:00 21,0 15,0 15 8 W - 10 -
16.10.2017 15:00:00 22,0 11,0 8 4 W - 10 -
16.10.2017 14:00:00 20,6 12,6 4 2 - 1028,2 10 60
16.10.2017 13:00:00 19,0 13,0 4 2 W - 10 -
16.10.2017 12:00:00 18,0 14,0 4 2 E - 10 -
16.10.2017 11:00:00 14,0 13,4 11 6 ESE 1029,4 10 60
16.10.2017 10:00:00 12,0 12,0 13 7 SE - 10 -
16.10.2017 09:00:00 11,0 11,0 9 5 SE - 4,0 -
16.10.2017 08:00:00 10,0 9,7 9 5 SE 1028,4 0,4 -
16.10.2017 07:00:00 10,0 10,0 4 2 ESE - 0,2 -
16.10.2017 06:00:00 10,0 10,0 5 3 ESE - 0,3 -
16.10.2017 05:00:00 12,0 11,7 5 3 S 1028,3 0,2 -
16.10.2017 04:00:00 12,0 12,0 5 3 SSE - 0,2 -
16.10.2017 03:00:00 12,0 12,0 5 3 SSE - 0,2 -
16.10.2017 02:00:00 12,6 12,3 5 3 ESE 1028,5 0,2 -
16.10.2017 01:00:00 11,0 11,0 5 3 SE - 0,2 -
16.10.2017 00:00:00 11,0 11,0 4 2 SE - 0,2 -
15.10.2017 23:00:00 11,4 10,6 4 2 SSE 1028,6 0,2 -
15.10.2017 22:00:00 12,0 12,0 4 2 SSW - 0,3 -
15.10.2017 21:00:00 15,0 14,0 4 2 W - 4,0 -
15.10.2017 20:00:00 17,0 16,0 4 2 NW 1028,7 10 0
15.10.2017 19:00:00 17,0 16,0 5 3 WNW - 10 -
15.10.2017 18:00:00 19,0 16,0 9 5 WNW - 10 -
15.10.2017 17:00:00 20,8 15,6 11 6 W 1028,6 10 60
15.10.2017 16:00:00 21,0 15,0 11 6 W - 10 -
15.10.2017 15:00:00 21,0 14,0 11 6 W - 10 -
15.10.2017 14:00:00 19,8 14,4 4 2 NW 1029,7 10 60
15.10.2017 13:00:00 19,0 14,0 4 2 WSW - 10 -
15.10.2017 12:00:00 17,0 14,0 5 3 S - 10 -
15.10.2017 11:00:00 13,6 12,8 9 5 SSE 1030,2 10 0
15.10.2017 10:00:00 12,0 12,0 11 6 ESE - 2,0 -
15.10.2017 09:00:00 12,0 12,0 11 6 SE - 0,2 -
15.10.2017 08:00:00 10,0 9,5 9 5 ESE 1029,6 0,1 0
15.10.2017 07:00:00 10,0 10,0 5 3 ESE - 0,4 -
15.10.2017 06:00:00 10,0 10,0 5 3 ESE - 0,4 -

tt = Température de l'air
td = dewpoint
ff = Vitesse du vent
dd = Direction du vent
ppp = reduced air pressure
vv = visibility
sd = Ensoleillement

stations d'obs. à proximité